FW2996 Weather Reports


Display with metric or nautical units.
time (UTC)temp
F
wind
direction
speed
MPH
gust
MPH
rain 1hr
in
rain 24hr
in
rain mn
in
humidity
%
barometer
mb
20260505075515 69 244 5.0 11.0 0.00 0.00 0.00 92 1049.4
20260505075012 69 200 4.0 9.0 0.00 0.00 0.00 92 1049.4
20260505074509 69 223 5.0 8.0 0.00 0.00 0.00 92 1049.5
20260505074007 69 193 8.0 18.0 0.00 0.00 0.00 92 1049.8
20260505073504 69 180 5.0 11.0 0.00 0.00 0.00 92 1049.6
20260505073003 69 245 6.0 10.0 0.00 0.00 0.00 92 1049.7
20260505072458 69 214 4.0 11.0 0.00 0.00 0.00 92 1049.4
20260505071954 69 211 8.0 11.0 0.00 0.00 0.00 92 1049.7
20260505071450 69 200 6.0 11.0 0.00 0.00 0.00 92 1049.9
20260505070948 69 184 5.0 16.0 0.00 0.00 0.00 92 1049.8
20260505070445 69 177 4.0 15.0 0.00 0.00 0.00 92 1050.0
20260505065940 69 234 5.0 10.0 0.00 0.00 0.00 92 1050.2
20260505065437 69 169 6.0 9.0 0.00 0.00 0.00 92 1050.1
20260505064934 69 221 7.0 9.0 0.00 0.00 0.00 92 1050.2
20260505064431 69 159 8.0 10.0 0.00 0.00 0.00 91 1050.0
20260505063929 69 179 8.0 14.0 0.00 0.00 0.00 91 1050.2
20260505063425 69 172 6.0 13.0 0.00 0.00 0.00 91 1050.4
20260505062922 69 204 4.0 15.0 0.00 0.00 0.00 91 1050.4
20260505062419 69 189 4.0 13.0 0.00 0.00 0.00 91 1050.4
20260505061916 70 188 5.0 15.0 0.00 0.00 0.00 91 1050.4
20260505061414 70 188 5.0 13.0 0.00 0.00 0.00 91 1050.4
20260505060911 70 209 8.0 13.0 0.00 0.00 0.00 90 1050.7
20260505060408 70 222 4.0 11.0 0.00 0.00 0.00 91 1050.6
20260505055904 70 200 5.0 10.0 0.00 0.00 0.00 90 1050.6
20260505055400 70 171 3.0 7.0 0.00 0.00 0.00 91 1050.6
20260505054857 70 202 7.0 11.0 0.00 0.00 0.00 90 1050.5
20260505054355 70 182 4.0 11.0 0.00 0.00 0.00 90 1050.5
20260505053853 70 227 3.0 11.0 0.00 0.00 0.00 90 1050.4
20260505053350 70 266 4.0 14.0 0.00 0.00 0.00 90 1050.5
20260505052847 70 232 9.0 13.0 0.00 0.00 0.00 90 1050.5
20260505052343 70 139 8.0 13.0 0.00 0.00 0.00 90 1050.4
20260505051840 70 189 6.0 13.0 0.00 0.00 0.00 90 1050.7
20260505051338 70 203 9.0 14.0 0.00 0.00 0.00 90 1050.4
20260505050836 70 202 11.0 18.0 0.00 0.00 0.00 90 1050.4
20260505050334 70 195 6.0 15.0 0.00 0.00 0.00 91 1050.5
20260505041300 70 193 9.0 13.0 0.00 0.00 0.00 89 1050.5
20260505040758 70 171 4.0 10.0 0.00 0.00 0.00 89 1050.4
20260505040255 71 142 10.0 13.0 0.00 0.00 0.00 88 1050.4
20260505035752 71 163 9.0 13.0 0.00 0.00 0.00 88 1050.5
20260505035247 71 178 8.0 10.0 0.00 0.00 0.00 88 1050.5
20260505034745 71 206 5.0 10.0 0.00 0.00 0.00 87 1050.5
20260505034241 71 151 8.0 14.0 0.00 0.00 0.00 87 1050.6
20260505033738 71 143 6.0 8.0 0.00 0.00 0.00 86 1050.4
20260505033236 72 198 6.0 10.0 0.00 0.00 0.00 85 1050.5
20260505032734 72 194 5.0 9.0 0.00 0.00 0.00 85 1050.6
20260505032229 72 134 9.0 14.0 0.00 0.00 0.00 85 1050.4
20260505031727 72 200 3.0 9.0 0.00 0.00 0.00 85 1050.4
20260505031223 72 157 5.0 7.0 0.00 0.00 0.00 84 1050.3
20260505030720 72 174 5.0 8.0 0.00 0.00 0.00 84 1050.4
20260505030216 72 159 8.0 10.0 0.00 0.00 0.00 84 1050.4
20260505025712 72 174 2.0 8.0 0.00 0.00 0.00 84 1050.7
20260505025211 72 195 5.0 7.0 0.00 0.00 0.00 83 1050.4
20260505024708 73 202 2.0 6.0 0.00 0.00 0.00 83 1050.5
20260505024205 73 168 4.0 6.0 0.00 0.00 0.00 82 1050.5
20260505023703 73 194 3.0 8.0 0.00 0.00 0.00 82 1050.7
20260505023200 73 177 2.0 9.0 0.00 0.00 0.00 82 1050.7
20260505022657 73 198 4.0 8.0 0.00 0.00 0.00 81 1050.5
20260505022154 73 175 6.0 9.0 0.00 0.00 0.00 81 1050.4
20260505021651 73 184 3.0 7.0 0.00 0.00 0.00 81 1050.6
20260505021148 73 182 3.0 6.0 0.00 0.00 0.00 80 1050.7
20260505020643 74 186 3.0 7.0 0.00 0.00 0.00 79 1050.5
20260505020139 74 172 4.0 8.0 0.00 0.00 0.00 79 1050.3
20260505015637 74 177 2.0 10.0 0.00 0.00 0.00 78 1050.4
20260505015133 74 182 5.0 7.0 0.00 0.00 0.00 78 1050.2
20260505014630 74 161 6.0 9.0 0.00 0.00 0.00 77 1050.4
20260505014127 74 189 3.0 4.0 0.00 0.00 0.00 77 1050.3
20260505013625 74 175 2.0 4.0 0.00 0.00 0.00 77 1050.2
20260505013122 75 166 4.0 7.0 0.00 0.00 0.00 76 1050.2
20260505012620 75 184 10.0 13.0 0.00 0.00 0.00 75 1050.2
20260505012116 75 192 6.0 10.0 0.00 0.00 0.00 74 1050.2
20260505011612 75 161 7.0 11.0 0.00 0.00 0.00 74 1050.3
20260505011110 75 187 4.0 7.0 0.00 0.00 0.00 73 1050.1
20260505010605 76 190 2.0 7.0 0.00 0.00 0.00 71 1050.2
20260505005558 76 173 4.0 7.0 0.00 0.00 0.00 70 1050.2
20260505005055 77 197 4.0 9.0 0.00 0.00 0.00 69 1050.0
20260505004552 77 204 5.0 10.0 0.00 0.00 0.00 68 1050.0
20260505004049 77 196 8.0 9.0 0.00 0.00 0.00 68 1050.0
20260505003546 77 198 6.0 9.0 0.00 0.00 0.00 68 1049.9
20260505003044 77 173 5.0 11.0 0.00 0.00 0.00 67 1050.0
20260505002543 77 198 4.0 10.0 0.00 0.00 0.00 67 1050.0
20260505002038 78 199 4.0 11.0 0.00 0.00 0.00 67 1050.0
20260505001534 78 188 6.0 15.0 0.00 0.00 0.00 67 1049.8
20260505001031 78 169 2.0 6.0 0.00 0.00 0.00 66 1049.8
20260505000529 78 192 3.0 10.0 0.00 0.00 0.00 66 1049.9
20260505000026 78 205 5.0 11.0 0.00 0.00 0.00 65 1049.7
20260504235523 78 219 6.0 13.0 0.00 0.00 0.00 65 1050.1
20260504235019 78 195 6.0 14.0 0.00 0.00 0.00 65 1049.9
20260504234517 78 185 6.0 10.0 0.00 0.00 0.00 65 1050.2
20260504234014 78 192 7.0 10.0 0.00 0.00 0.00 65 1050.4
20260504233509 78 149 10.0 15.0 0.00 0.00 0.00 65 1050.4
20260504233006 79 187 9.0 15.0 0.00 0.00 0.00 64 1050.5
20260504232503 78 186 4.0 9.0 0.00 0.00 0.00 65 1050.6
20260504232001 79 125 4.0 13.0 0.00 0.00 0.00 65 1050.5
20260504231456 79 202 3.0 14.0 0.00 0.00 0.00 64 1050.5
20260504230953 79 187 9.0 11.0 0.00 0.00 0.00 64 1050.4
20260504230449 79 146 6.0 15.0 0.00 0.00 0.00 64 1050.4
20260504225949 78 183 6.0 10.0 0.00 0.00 0.00 65 1050.8
20260504225445 79 193 4.0 10.0 0.00 0.00 0.00 65 1050.6
20260504224942 80 196 5.0 14.0 0.00 0.00 0.00 63 1050.8
20260504224439 79 176 9.0 13.0 0.00 0.00 0.00 64 1050.8
20260504223936 80 166 9.0 13.0 0.00 0.00 0.00 63 1050.8
20260504223432 80 221 7.0 10.0 0.00 0.00 0.00 63 1051.0
20260504222927 80 193 7.0 9.0 0.00 0.00 0.00 63 1051.0
20260504222425 80 157 10.0 19.0 0.00 0.00 0.00 63 1051.2
20260504221923 79 121 9.0 23.0 0.00 0.00 0.00 64 1051.1
20260504221419 80 170 3.0 13.0 0.00 0.00 0.00 63 1051.2
20260504220917 80 193 7.0 11.0 0.00 0.00 0.00 62 1051.4
20260504220413 80 210 9.0 13.0 0.00 0.00 0.00 61 1051.2
20260504215910 80 192 5.0 13.0 0.00 0.00 0.00 62 1051.1
20260504215407 80 178 5.0 10.0 0.00 0.00 0.00 62 1051.3
20260504214903 80 131 6.0 17.0 0.00 0.00 0.00 62 1051.3
20260504214400 80 171 4.0 13.0 0.00 0.00 0.00 63 1051.2
20260504213857 82 186 7.0 16.0 0.00 0.00 0.00 60 1051.3
20260504213353 81 171 9.0 17.0 0.00 0.00 0.00 60 1051.3
20260504212850 80 151 6.0 14.0 0.00 0.00 0.00 61 1051.4
20260504212346 81 176 3.0 16.0 0.00 0.00 0.00 62 1051.4
20260504211844 81 200 3.0 9.0 0.00 0.00 0.00 61 1051.5
20260504211340 81 228 6.0 16.0 0.00 0.00 0.00 61 1051.5
20260504210838 80 185 6.0 9.0 0.00 0.00 0.00 61 1051.8
20260504210334 81 171 7.0 15.0 0.00 0.00 0.00 59 1051.7
20260504205831 82 182 8.0 13.0 0.00 0.00 0.00 59 1051.9
20260504205329 81 192 8.0 11.0 0.00 0.00 0.00 60 1051.9
20260504204827 81 188 4.0 15.0 0.00 0.00 0.00 60 1051.9
20260504204326 82 196 6.0 13.0 0.00 0.00 0.00 58 1052.2
20260504203825 82 239 4.0 13.0 0.00 0.00 0.00 60 1051.9
20260504203321 81 135 7.0 13.0 0.00 0.00 0.00 59 1052.2
20260504202816 81 194 6.0 14.0 0.00 0.00 0.00 60 1052.3
20260504202314 82 167 8.0 17.0 0.00 0.00 0.00 59 1052.5
20260504201811 81 191 9.0 14.0 0.00 0.00 0.00 59 1052.5
20260504201308 81 126 8.0 17.0 0.00 0.00 0.00 61 1052.7
20260504200806 82 144 5.0 9.0 0.00 0.00 0.00 60 1052.7
20260504200302 81 183 6.0 13.0 0.00 0.00 0.00 59 1052.7
20260504195758 81 108 7.0 11.0 0.00 0.00 0.00 59 1052.7
20260504195254 80 211 6.0 11.0 0.00 0.00 0.00 60 1052.8
20260504194751 82 150 3.0 8.0 0.00 0.00 0.00 61 1052.9
20260504194247 80 208 8.0 13.0 0.00 0.00 0.00 59 1053.1
20260504193743 80 207 6.0 13.0 0.00 0.00 0.00 60 1052.9
20260504193241 81 151 6.0 14.0 0.00 0.00 0.00 60 1053.3
20260504192739 81 152 4.0 8.0 0.00 0.00 0.00 59 1053.4
20260504192237 79 155 10.0 14.0 0.00 0.00 0.00 63 1053.3
20260504191736 79 177 4.0 8.0 0.00 0.00 0.00 62 1053.4
20260504191232 80 197 7.0 14.0 0.00 0.00 0.00 63 1053.7
20260504190727 80 203 5.0 13.0 0.00 0.00 0.00 61 1053.6
20260504190224 79 193 4.0 9.0 0.00 0.00 0.00 61 1053.8
20260504185721 79 204 3.0 14.0 0.00 0.00 0.00 62 1053.8
20260504185218 78 199 5.0 11.0 0.00 0.00 0.00 63 1053.6
20260504184713 78 200 6.0 13.0 0.00 0.00 0.00 63 1053.9
20260504184209 78 160 6.0 8.0 0.00 0.00 0.00 63 1053.8
20260504183705 78 156 11.0 14.0 0.00 0.00 0.00 64 1054.1
20260504183203 78 199 5.0 16.0 0.00 0.00 0.00 63 1053.9
20260504182701 77 197 4.0 9.0 0.00 0.00 0.00 68 1054.3
20260504182158 77 213 6.0 10.0 0.00 0.00 0.00 66 1054.5
20260504181655 76 177 3.0 7.0 0.00 0.00 0.00 68 1054.4
20260504181153 77 222 6.0 14.0 0.00 0.00 0.00 66 1054.4
20260504180652 76 164 4.0 13.0 0.00 0.00 0.00 67 1054.6
20260504180150 75 185 9.0 11.0 0.00 0.00 0.00 69 1054.5
20260504175647 77 231 7.0 18.0 0.00 0.00 0.00 66 1054.4
20260504175143 76 168 7.0 10.0 0.00 0.00 0.00 66 1054.8
20260504174642 76 184 8.0 13.0 0.00 0.00 0.00 67 1054.7
20260504174138 76 150 7.0 9.0 0.00 0.00 0.00 67 1054.7
20260504173635 75 218 5.0 11.0 0.00 0.00 0.00 70 1055.0
20260504173132 76 198 3.0 9.0 0.00 0.00 0.00 68 1055.4
20260504172629 76 149 8.0 11.0 0.00 0.00 0.00 67 1055.2
20260504172125 74 215 4.0 15.0 0.00 0.00 0.00 70 1055.5
20260504171622 75 211 5.0 9.0 0.00 0.00 0.00 69 1055.3
20260504171119 74 229 7.0 11.0 0.00 0.00 0.00 70 1055.5
20260504170615 73 185 7.0 13.0 0.00 0.00 0.00 72 1055.7
20260504170113 74 206 4.0 13.0 0.00 0.00 0.00 71 1055.4
20260504150958 67 188 4.0 13.0 0.00 0.00 0.00 82 1056.2
20260504150455 67 196 5.0 10.0 0.00 0.00 0.00 82 1056.2
20260504140922 67 214 3.0 10.0 0.00 0.00 0.00 80 1056.3
20260504140418 66 191 4.0 9.0 0.00 0.00 0.00 81 1056.2
20260504130337 63 205 4.0 9.0 0.00 0.00 0.00 85 1056.2
20260504120300 60 182 2.0 6.0 0.00 0.00 0.00 89 1055.8
20260504110224 60 148 3.0 7.0 0.00 0.00 0.00 89 1055.8
20260504100148 58 160 2.0 2.0 0.00 0.00 0.00 91 1055.9
20260504090111 59 175 2.0 4.0 0.00 0.00 0.00 88 1056.3
20260504081541 60 174 2.0 6.0 0.00 0.00 0.00 85 1056.6
20260504081037 61 156 3.0 7.0 0.00 0.00 0.00 84 1056.8
20260504080534 61 159 2.0 4.0 0.00 0.00 0.00 84 1056.5